TimeCDT,TemperatureF,Dew PointF,Humidity,Sea Level PressureIn,VisibilityMPH,Wind Direction,Wind SpeedMPH,Gust SpeedMPH,PrecipitationIn,Events,Conditions,WindDirDegrees,DateUTC
12:51 AM,62.1,51.1,67,29.97,10.0,South,6.9,-,N/A,,Clear,180,2012-11-02 05:51:00
1:51 AM,61.0,52.0,72,29.96,10.0,South,6.9,-,N/A,,Clear,180,2012-11-02 06:51:00
2:51 AM,55.9,51.1,84,29.95,10.0,South,3.5,-,N/A,,Clear,190,2012-11-02 07:51:00
3:51 AM,59.0,54.0,83,29.94,10.0,South,5.8,-,N/A,,Clear,180,2012-11-02 08:51:00
4:51 AM,55.9,52.0,87,29.94,10.0,SSW,3.5,-,N/A,,Clear,210,2012-11-02 09:51:00
5:51 AM,59.0,54.0,83,29.94,10.0,South,6.9,-,N/A,,Clear,190,2012-11-02 10:51:00
6:51 AM,55.9,54.0,93,29.95,10.0,SSW,6.9,-,N/A,,Clear,200,2012-11-02 11:51:00
7:51 AM,57.9,55.0,90,29.96,10.0,South,6.9,-,N/A,,Clear,190,2012-11-02 12:51:00
8:51 AM,60.1,55.9,86,29.99,10.0,SSW,4.6,-,N/A,,Clear,210,2012-11-02 13:51:00
9:51 AM,66.0,57.9,75,29.99,10.0,South,9.2,-,N/A,,Clear,190,2012-11-02 14:51:00
10:51 AM,73.0,59.0,61,29.98,10.0,South,10.4,-,N/A,,Clear,190,2012-11-02 15:51:00
11:51 AM,78.1,57.9,50,29.97,10.0,South,16.1,23.0,N/A,,Clear,180,2012-11-02 16:51:00
12:51 PM,81.0,57.0,44,29.94,10.0,South,16.1,-,N/A,,Clear,190,2012-11-02 17:51:00
1:51 PM,82.9,55.9,39,29.91,10.0,SSW,15.0,21.9,N/A,,Clear,210,2012-11-02 18:51:00
2:51 PM,84.0,54.0,35,29.88,10.0,South,13.8,20.7,N/A,,Clear,170,2012-11-02 19:51:00
4:51 PM,84.0,51.1,32,29.86,10.0,SSW,10.4,-,N/A,,Clear,200,2012-11-02 21:51:00
5:51 PM,82.9,51.1,33,29.85,10.0,South,8.1,-,N/A,,Clear,180,2012-11-02 22:51:00
6:51 PM,77.0,51.1,40,29.87,10.0,South,5.8,-,N/A,,Clear,190,2012-11-02 23:51:00
7:51 PM,69.1,52.0,54,29.89,10.0,SSE,4.6,-,N/A,,Clear,160,2012-11-03 00:51:00
8:51 PM,63.0,51.1,65,29.91,10.0,South,5.8,-,N/A,,Clear,190,2012-11-03 01:51:00
9:51 PM,68.0,52.0,56,29.92,10.0,South,8.1,-,N/A,,Clear,180,2012-11-03 02:51:00
10:51 PM,66.9,52.0,59,29.92,10.0,South,9.2,-,N/A,,Clear,170,2012-11-03 03:51:00